Вернуться в каталог

FENGYUN 1C DEB

АктивенSSO
NORAD 41833·DEBRIS·🇨🇳 China

Запущен May 10, 1999 с Taiyuan Satellite Launch Center

Loading…

Ближайшие Пролёты (ближайшие 24 часа)

TLE

СвежийSource: Space-Track

Эпоха: Sep 13, 2026, 03:22 UTC

1 41833U 99025EYL 26256.14032171  .00002165  00000-0  88361-3 0  9997
2 41833  98.7322 330.3329 0054137 145.5581 214.9127 14.27602440512772

Отслеживайте FENGYUN 1C DEB в реальном времени с AllMySat

Download on the App Store